Time,TemperatureF,DewpointF,PressureIn,WindDirection,WindDirectionDegrees,WindSpeedMPH,WindSpeedGustMPH,Humidity,HourlyPrecipIn,Conditions,Clouds,dailyrainin,SoftwareType,DateUTC
2013-07-07 00:01:00,66.0,63.0,29.88,SSW,195,0.0,-999.0,91,-99.99,,,-99.99,,2013-07-07 04:01:00,
2013-07-07 00:02:00,66.0,63.0,29.88,SSW,195,0.0,-999.0,91,-99.99,,,-99.99,,2013-07-07 04:02:00,
2013-07-07 00:11:00,66.0,63.0,29.88,SSW,195,0.0,-999.0,91,-99.99,,,-99.99,,2013-07-07 04:11:00,
2013-07-07 07:53:00,66.0,65.0,29.90,South,189,0.0,-999.0,97,-99.99,,,-99.99,,2013-07-07 11:53:00,
2013-07-07 08:02:00,66.0,65.0,29.90,South,189,0.0,-999.0,97,-99.99,,,-99.99,,2013-07-07 12:02:00,
2013-07-07 08:12:00,67.0,65.0,29.91,South,180,0.0,-999.0,94,-99.99,,,-99.99,,2013-07-07 12:12:00,
2013-07-07 08:22:00,68.0,66.0,29.91,South,172,0.0,-999.0,93,-99.99,,,-99.99,,2013-07-07 12:22:00,
2013-07-07 08:34:00,68.0,66.0,29.91,South,172,0.0,-999.0,93,-99.99,,,-99.99,,2013-07-07 12:34:00,
2013-07-07 08:43:00,70.0,67.0,29.91,ENE,74,0.0,-999.0,90,-99.99,,,-99.99,,2013-07-07 12:43:00,
2013-07-07 08:52:00,71.0,67.0,29.92,WNW,287,0.0,-999.0,87,-99.99,,,-99.99,,2013-07-07 12:52:00,
2013-07-07 09:03:00,72.0,67.0,29.90,ENE,64,0.0,-999.0,85,-99.99,,,-99.99,,2013-07-07 13:03:00,
2013-07-07 09:12:00,72.0,67.0,29.90,ENE,64,0.0,-999.0,85,-99.99,,,-99.99,,2013-07-07 13:12:00,
2013-07-07 09:22:00,75.0,68.0,29.92,NW,320,0.0,-999.0,79,-99.99,,,-99.99,,2013-07-07 13:22:00,
2013-07-07 09:34:00,75.0,67.0,29.89,NW,320,0.0,-999.0,77,-99.99,,,-99.99,,2013-07-07 13:34:00,
2013-07-07 09:43:00,75.0,67.0,29.89,NW,320,0.0,-999.0,77,-99.99,,,-99.99,,2013-07-07 13:43:00,
2013-07-07 09:52:00,77.0,68.0,29.91,NNE,28,0.0,-999.0,75,-99.99,,,-99.99,,2013-07-07 13:52:00,
2013-07-07 10:02:00,76.0,68.0,29.88,NNE,28,0.0,-999.0,76,-99.99,,,-99.99,,2013-07-07 14:02:00,
2013-07-07 10:12:00,76.0,68.0,29.88,NNE,28,0.0,-999.0,76,-99.99,,,-99.99,,2013-07-07 14:12:00,
2013-07-07 10:22:00,78.0,69.0,29.88,North,10,0.0,-999.0,74,-99.99,,,-99.99,,2013-07-07 14:22:00,
2013-07-07 10:34:00,78.0,69.0,29.88,North,10,0.0,-999.0,74,-99.99,,,-99.99,,2013-07-07 14:34:00,
2013-07-07 10:43:00,79.0,69.0,29.87,ESE,105,0.0,-999.0,72,-99.99,,,-99.99,,2013-07-07 14:43:00,
2013-07-07 10:53:00,79.0,70.0,29.87,NNE,14,1.0,-999.0,73,-99.99,,,-99.99,,2013-07-07 14:53:00,
2013-07-07 11:02:00,79.0,70.0,29.87,NNE,14,1.0,-999.0,73,-99.99,,,-99.99,,2013-07-07 15:02:00,
2013-07-07 11:12:00,79.0,69.0,29.87,East,80,0.0,-999.0,72,-99.99,,,-99.99,,2013-07-07 15:12:00,
2013-07-07 11:22:00,80.0,71.0,29.89,East,80,0.0,-999.0,73,-99.99,,,-99.99,,2013-07-07 15:22:00,
2013-07-07 11:34:00,79.0,69.0,29.87,East,83,0.0,-999.0,71,-99.99,,,-99.99,,2013-07-07 15:34:00,
2013-07-07 11:52:00,79.0,69.0,29.90,NNW,343,0.0,-999.0,71,-99.99,,,-99.99,,2013-07-07 15:52:00,
2013-07-07 12:02:00,79.0,69.0,29.87,ESE,110,0.0,-999.0,72,-99.99,,,-99.99,,2013-07-07 16:02:00,
2013-07-07 12:11:00,79.0,70.0,29.88,East,88,0.0,-999.0,73,-99.99,,,-99.99,,2013-07-07 16:11:00,
2013-07-07 12:23:00,79.0,69.0,29.90,East,88,0.0,-999.0,72,-99.99,,,-99.99,,2013-07-07 16:23:00,
2013-07-07 12:43:00,78.0,69.0,29.88,East,93,0.0,-999.0,74,-99.99,,,-99.99,,2013-07-07 16:43:00,
2013-07-07 12:53:00,79.0,70.0,29.90,ESE,116,0.0,-999.0,73,-99.99,,,-99.99,,2013-07-07 16:53:00,
2013-07-07 13:02:00,78.0,69.0,29.87,South,169,0.0,-999.0,74,-99.99,,,-99.99,,2013-07-07 17:02:00,
2013-07-07 13:12:00,78.0,69.0,29.87,South,169,0.0,-999.0,74,-99.99,,,-99.99,,2013-07-07 17:12:00,
2013-07-07 13:22:00,79.0,68.0,29.87,NNW,343,0.0,-999.0,70,-99.99,,,-99.99,,2013-07-07 17:22:00,
2013-07-07 13:34:00,79.0,70.0,29.87,NNW,343,0.0,-999.0,73,-99.99,,,-99.99,,2013-07-07 17:34:00,
2013-07-07 13:43:00,79.0,70.0,29.87,NNW,343,0.0,-999.0,73,-99.99,,,-99.99,,2013-07-07 17:43:00,
2013-07-07 13:53:00,79.0,68.0,29.86,NNW,343,0.0,-999.0,68,-99.99,,,-99.99,,2013-07-07 17:53:00,
2013-07-07 14:02:00,79.0,68.0,29.86,NNW,343,0.0,-999.0,68,-99.99,,,-99.99,,2013-07-07 18:02:00,
2013-07-07 14:12:00,79.0,70.0,29.85,North,357,0.0,-999.0,74,-99.99,,,-99.99,,2013-07-07 18:12:00,
2013-07-07 14:33:00,80.0,70.0,29.85,ENE,58,0.0,-999.0,72,-99.99,,,-99.99,,2013-07-07 18:33:00,
2013-07-07 14:43:00,81.0,69.0,29.85,North,351,0.0,-999.0,67,-99.99,,,-99.99,,2013-07-07 18:43:00,
2013-07-07 14:53:00,82.0,69.0,29.87,North,351,0.0,-999.0,66,-99.99,,,-99.99,,2013-07-07 18:53:00,
2013-07-07 15:01:00,81.0,69.0,29.84,North,3,0.0,-999.0,66,-99.99,,,-99.99,,2013-07-07 19:01:00,
2013-07-07 15:11:00,82.0,69.0,29.83,North,6,1.0,-999.0,64,-99.99,,,-99.99,,2013-07-07 19:11:00,
2013-07-07 15:22:00,83.0,69.0,29.85,North,6,1.0,-999.0,63,-99.99,,,-99.99,,2013-07-07 19:22:00,
2013-07-07 15:34:00,83.0,70.0,29.83,East,95,0.0,-999.0,65,-99.99,,,-99.99,,2013-07-07 19:34:00,
2013-07-07 15:43:00,83.0,70.0,29.83,East,95,0.0,-999.0,65,-99.99,,,-99.99,,2013-07-07 19:43:00,
2013-07-07 15:54:00,83.0,68.0,29.85,SE,145,0.0,-999.0,61,-99.99,,,-99.99,,2013-07-07 19:54:00,
2013-07-07 16:02:00,82.0,70.0,29.83,SE,145,0.0,-999.0,68,-99.99,,,-99.99,,2013-07-07 20:02:00,
2013-07-07 16:11:00,82.0,70.0,29.83,SE,145,0.0,-999.0,68,-99.99,,,-99.99,,2013-07-07 20:11:00,
2013-07-07 16:22:00,80.0,67.0,29.82,SW,233,1.0,-999.0,65,-99.99,,,-99.99,,2013-07-07 20:22:00,
2013-07-07 16:34:00,80.0,67.0,29.82,SW,233,1.0,-999.0,65,-99.99,,,-99.99,,2013-07-07 20:34:00,
2013-07-07 16:42:00,79.0,69.0,29.82,SSW,202,0.0,-999.0,71,-99.99,,,-99.99,,2013-07-07 20:42:00,
2013-07-07 16:53:00,78.0,69.0,29.81,SSW,197,0.0,-999.0,73,-99.99,,,-99.99,,2013-07-07 20:53:00,
2013-07-07 17:02:00,78.0,69.0,29.81,SSW,197,0.0,-999.0,73,-99.99,,,-99.99,,2013-07-07 21:02:00,
2013-07-07 17:12:00,78.0,69.0,29.81,SSW,205,0.0,-999.0,75,-99.99,,,-99.99,,2013-07-07 21:12:00,
2013-07-07 17:22:00,79.0,69.0,29.83,SSW,205,0.0,-999.0,71,-99.99,,,-99.99,,2013-07-07 21:22:00,
2013-07-07 17:33:00,78.0,68.0,29.80,SSW,197,0.0,-999.0,72,-99.99,,,-99.99,,2013-07-07 21:33:00,
2013-07-07 17:44:00,79.0,68.0,29.80,SSW,196,0.0,-999.0,69,-99.99,,,-99.99,,2013-07-07 21:44:00,
2013-07-07 17:53:00,80.0,69.0,29.82,SSW,196,0.0,-999.0,70,-99.99,,,-99.99,,2013-07-07 21:53:00,
2013-07-07 18:01:00,79.0,68.0,29.80,SSW,204,0.0,-999.0,70,-99.99,,,-99.99,,2013-07-07 22:01:00,
2013-07-07 18:11:00,79.0,68.0,29.80,SSW,204,0.0,-999.0,70,-99.99,,,-99.99,,2013-07-07 22:11:00,
2013-07-07 18:22:00,80.0,69.0,29.82,South,185,0.0,-999.0,70,-99.99,,,-99.99,,2013-07-07 22:22:00,
2013-07-07 18:34:00,79.0,69.0,29.80,South,187,0.0,-999.0,72,-99.99,,,-99.99,,2013-07-07 22:34:00,
2013-07-07 18:44:00,79.0,69.0,29.80,South,187,0.0,-999.0,72,-99.99,,,-99.99,,2013-07-07 22:44:00,
2013-07-07 18:54:00,78.0,68.0,29.80,SW,221,1.0,-999.0,72,-99.99,,,-99.99,,2013-07-07 22:54:00,
2013-07-07 19:02:00,78.0,68.0,29.80,SW,221,1.0,-999.0,72,-99.99,,,-99.99,,2013-07-07 23:02:00,
2013-07-07 19:12:00,76.0,66.0,29.81,SSE,166,1.0,-999.0,72,-99.99,,,-99.99,,2013-07-07 23:12:00,
2013-07-07 19:22:00,75.0,67.0,29.81,South,186,1.0,-999.0,75,-99.99,,,-99.99,,2013-07-07 23:22:00,
2013-07-07 19:33:00,75.0,67.0,29.81,South,186,1.0,-999.0,75,-99.99,,,-99.99,,2013-07-07 23:33:00,
2013-07-07 19:43:00,75.0,67.0,29.81,SE,124,3.0,-999.0,76,-99.99,,,-99.99,,2013-07-07 23:43:00,
2013-07-07 19:53:00,74.0,67.0,29.81,South,181,2.0,-999.0,80,-99.99,,,-99.99,,2013-07-07 23:53:00,
2013-07-07 20:02:00,74.0,67.0,29.81,South,181,2.0,-999.0,80,-99.99,,,-99.99,,2013-07-08 00:02:00,
2013-07-07 20:12:00,73.0,67.0,29.81,SW,214,2.0,-999.0,82,-99.99,,,-99.99,,2013-07-08 00:12:00,
2013-07-07 20:22:00,73.0,67.0,29.84,SW,218,2.0,-999.0,82,-99.99,,,-99.99,,2013-07-08 00:22:00,
2013-07-07 20:33:00,72.0,67.0,29.81,SSW,192,1.0,-999.0,84,-99.99,,,-99.99,,2013-07-08 00:33:00,
2013-07-07 20:43:00,71.0,66.0,29.82,SSW,197,0.0,-999.0,85,-99.99,,,-99.99,,2013-07-08 00:43:00,
2013-07-07 20:53:00,72.0,67.0,29.85,SSW,197,0.0,-999.0,85,-99.99,,,-99.99,,2013-07-08 00:53:00,
2013-07-07 21:01:00,71.0,67.0,29.83,SSW,197,0.0,-999.0,86,-99.99,,,-99.99,,2013-07-08 01:01:00,
2013-07-07 21:11:00,71.0,67.0,29.83,SSW,197,0.0,-999.0,86,-99.99,,,-99.99,,2013-07-08 01:11:00,
2013-07-07 21:22:00,71.0,67.0,29.86,SSW,197,0.0,-999.0,88,-99.99,,,-99.99,,2013-07-08 01:22:00,
2013-07-07 21:32:00,70.0,67.0,29.84,SSW,197,0.0,-999.0,89,-99.99,,,-99.99,,2013-07-08 01:32:00,
2013-07-07 21:43:00,70.0,67.0,29.84,SSW,197,0.0,-999.0,89,-99.99,,,-99.99,,2013-07-08 01:43:00,
2013-07-07 21:53:00,69.0,66.0,29.84,SSW,197,0.0,-999.0,90,-99.99,,,-99.99,,2013-07-08 01:53:00,
2013-07-07 22:11:00,69.0,67.0,29.84,SSW,197,0.0,-999.0,92,-99.99,,,-99.99,,2013-07-08 02:11:00,
2013-07-07 22:22:00,68.0,66.0,29.84,SSW,197,0.0,-999.0,92,-99.99,,,-99.99,,2013-07-08 02:22:00,
2013-07-07 22:33:00,68.0,66.0,29.84,SSW,197,0.0,-999.0,92,-99.99,,,-99.99,,2013-07-08 02:33:00,
2013-07-07 22:42:00,68.0,66.0,29.84,SSW,197,0.0,-999.0,93,-99.99,,,-99.99,,2013-07-08 02:42:00,
2013-07-07 22:52:00,68.0,66.0,29.85,SSW,197,0.0,-999.0,93,-99.99,,,-99.99,,2013-07-08 02:52:00,
2013-07-07 23:02:00,68.0,66.0,29.84,SSW,197,0.0,-999.0,94,-99.99,,,-99.99,,2013-07-08 03:02:00,
2013-07-07 23:12:00,67.0,65.0,29.85,SSW,197,0.0,-999.0,94,-99.99,,,-99.99,,2013-07-08 03:12:00,
2013-07-07 23:23:00,68.0,66.0,29.87,SSW,197,0.0,-999.0,94,-99.99,,,-99.99,,2013-07-08 03:23:00,
2013-07-07 23:34:00,67.0,65.0,29.85,SSW,197,0.0,-999.0,94,-99.99,,,-99.99,,2013-07-08 03:34:00,
2013-07-07 23:42:00,67.0,66.0,29.85,SSW,197,0.0,-999.0,95,-99.99,,,-99.99,,2013-07-08 03:42:00,
2013-07-07 23:52:00,68.0,67.0,29.87,SSW,197,0.0,-999.0,95,-99.99,,,-99.99,,2013-07-08 03:52:00,